Location: Ferchesar
(52.6477°N, 12.4298°E)
Time: 20:20:28
(UTC+01:00)

A-11 Canister half - Pass Details

Date: 11 December 2021
Orbit: 1516 x 1684 km, 47.2° (Epoch: 23 January)

Event Time Altitude Azimuth Distance (km) Brightness Sun altitude
Exits shadow 03:38:40 10° 170° (S) 3,746 11.0 -39.8°
Reaches altitude 10° 03:38:42 10° 170° (S) 3,742 11.0 -39.8°
Maximum altitude 03:44:42 19° 130° (SE) 3,133 10.9 -38.9°
Drops below altitude 10° 03:50:48 10° 90° (E) 3,837 11.8 -38.0°
Sets 03:55:09 0° 74° (ENE) 4,858 12.6 -37.4°
